This demonstration page uses our WeatherBlox Daily Observations layout. Learn more.

Left ArrowRight Arrow

Hourly Observations for November 17, 2018

Temp ( °F °C ) Dew Point ( °F °C ) Humidity (%) Winds ( mph kmh ) Pressure ( in mb ) Visibility ( mi km ) Precip ( " mm )
12:53 am 00:53 Clear 34 1.1 26 -3.3 73 73 Calm 29.97 1015 10 16 0.00 0.00
1:53 am 01:53 Clear 36 2.2 27 -2.8 70 70 SE 7 11 29.95 1014 10 16 0.00 0.00
2:53 am 02:53 Clear 35 1.7 28 -2.2 76 76 ESE 5 7 29.95 1014 10 16 0.00 0.00
3:53 am 03:53 Clear 34 1.1 28 -2.2 79 79 SE 9 15 29.94 1014 10 16 0.00 0.00
4:53 am 04:53 Clear 34 1.1 28 -2.2 79 79 SE 8 13 29.94 1014 10 16 0.00 0.00
5:53 am 05:53 Clear 28 -2.2 24 -4.4 85 85 N 6 9 29.98 1015 10 16 0.00 0.00
6:53 am 06:53 Clear 27 -2.8 24 -4.4 89 89 NNW 7 11 30.01 1016 10 16 0.00 0.00
7:53 am 07:53 Sunny 27 -2.8 23 -5 85 85 NNE 3 6 30.02 1017 10 16 0.00 0.00
8:53 am 08:53 Sunny 40 4.4 30 -1.1 68 68 Calm 30.02 1017 10 16 0.00 0.00
9:53 am 09:53 Sunny 50 10 29 -1.7 44 44 Calm 30.01 1016 10 16 0.00 0.00
10:53 am 10:53 Sunny 60 15.6 21 -6.1 22 22 NNW 9 15 30.03 1017 10 16 0.00 0.00
11:53 am 11:53 Sunny 61 16.1 19 -7.2 20 20 VRB 6 9 30.02 1017 10 16 0.00 0.00
12:53 pm 12:53 Sunny 65 18.3 20 -6.7 18 18 NW 7 11 29.99 1016 10 16 0.00 0.00
1:53 pm 13:53 Sunny 68 20 18 -7.8 15 15 N 13 20 29.95 1014 10 16 0.00 0.00
2:53 pm 14:53 Sunny 66 18.9 21 -6.1 18 18 NNE 8 13 29.96 1015 10 16 0.00 0.00
3:53 pm 15:53 Sunny 66 18.9 26 -3.3 22 22 NNE 15 24 29.97 1015 10 16 0.00 0.00
4:53 pm 16:53 Sunny 64 17.8 28 -2.2 26 26 NE 13 20 29.98 1015 10 16 0.00 0.00
5:53 pm 17:53 Clear 57 13.9 30 -1.1 36 36 NNE 8 13 30.02 1017 10 16 0.00 0.00
6:53 pm 18:53 Clear 51 10.6 32 0 48 48 NE 9 15 30.06 1018 10 16 0.00 0.00
7:53 pm 19:53 Clear 50 10 33 0.6 52 52 NE 9 15 30.09 1019 10 16 0.00 0.00
8:53 pm 20:53 Clear 47 8.3 33 0.6 59 59 NE 12 19 30.10 1019 10 16 0.00 0.00
9:53 pm 21:53 Clear 43 6.1 32 0 65 65 NNE 13 20 30.12 1020 10 16 0.00 0.00
10:53 pm 22:53 Clear 40 4.4 31 -0.6 70 70 NNE 14 22 30.13 1020 10 16 0.00 0.00
11:53 pm 23:53 Clear 38 3.3 31 -0.6 76 76 NNE 14 22 30.15 1021 10 16 0.00 0.00

Powered by AerisWeather